Weather History for Troy, AL

Change the Weather History Date:

Tuesday, November 22, 2011

  Actual Average Record
Temperature  
Mean Temperature 66 °F 54 °F  
Max Temperature 78 °F 67 °F 78 °F (2010)
Min Temperature 54 °F 41 °F 21 °F (2000)
Degree Days  
Heating Degree Days 0 12  
Month to date heating degree days 181 192  
Since 1 July heating degree days 337 290  
Growing Degree Days 16 (Base 50)    
Moisture  
Dew Point 63 °F    
Average Humidity 84    
Maximum Humidity 100    
Minimum Humidity 67    
Precipitation  
Precipitation 0.21 in 0.17 in 0.63 in (2007)
Month to date precipitation 2.52 3.16  
Year to date precipitation 31.82 48.30  
Snow  
Snow 0.00 in - - ()
Month to date snowfall 0.0  
Since 1 July snowfall 0.0  
Since 1 September snowfall 0.0  
Snow Depth 0.00 in    
Sea Level Pressure  
Sea Level Pressure 30.05 in    
Wind  
Wind Speed 6 mph (SSW)    
Max Wind Speed 21 mph    
Max Gust Speed 28 mph    
Visibility 9 miles    
Events Rain , Thunderstorm    
T = Trace of Precipitation, MM = Missing Value Source: NWS Daily Summary

Daily Weather History Graph

Daily Weather History Graph

Search for Another Location

Airport:

Trip Planner

Search our weather history database for the weather conditions in past years. The results will help you decide how hot, cold, wet, or windy it might be!

Date:

Astronomy

Nov. 22, 2011 Rise Set
Actual Time 6:18 AM CST 4:41 PM CST
Civil Twilight 5:52 AM CST 5:07 PM CST
Nautical Twilight 5:22 AM CST 5:37 PM CST
Astronomical Twilight 4:53 AM CST 6:06 PM CST
Moon 3:15 AM CST (11/22) 2:34 PM CST (11/22)
Length of Visible Light 11h 15m
Length of Day
10h 23m
Waning Crescent, 9% of the Moon is Illuminated
Nov 22
Waning Crescent
Nov 25
New
Dec 2
First Quarter
Dec 10
Full
Dec 17
Last Quarter

Hourly Weather History & Observations

Time (CST) Temp. Dew Point Humidity Pressure Visibility Wind Dir Wind Speed Gust Speed Precip Events Conditions
12:53 AM 57.9 °F 57.0 °F 97% 30.12 in 10.0 mi Calm Calm - N/A   Clear
1:53 AM 57.0 °F 55.9 °F 96% 30.12 in 10.0 mi Calm Calm - N/A   Clear
2:53 AM 55.0 °F 54.0 °F 96% 30.10 in 10.0 mi Calm Calm - N/A   Clear
3:03 AM 53.6 °F 53.6 °F 100% 30.11 in 1.8 mi Calm Calm - 0.01 in   Clear
3:06 AM 53.6 °F 53.6 °F 100% 30.11 in 3.0 mi Calm Calm - 0.01 in   Clear
3:53 AM 54.0 °F 53.1 °F 97% 30.09 in 10.0 mi Calm Calm - 0.01 in   Clear
4:53 AM 61.0 °F 57.9 °F 90% 30.09 in 10.0 mi South 4.6 mph - N/A   Clear
5:53 AM 62.1 °F 60.1 °F 93% 30.10 in 10.0 mi South 8.1 mph - N/A   Clear
6:53 AM 63.0 °F 61.0 °F 93% 30.10 in 10.0 mi SSE 6.9 mph - N/A   Clear
7:11 AM 64.4 °F 62.6 °F 94% 30.11 in 10.0 mi SSE 5.8 mph - N/A   Partly Cloudy
7:30 AM 64.4 °F 62.6 °F 94% 30.12 in 10.0 mi SSE 8.1 mph - N/A   Mostly Cloudy
7:51 AM 64.4 °F 64.4 °F 100% 30.13 in 9.0 mi SSW 8.1 mph - N/A   Overcast
7:53 AM 64.9 °F 64.0 °F 97% 30.13 in 9.0 mi SSW 8.1 mph - N/A   Overcast
8:53 AM 64.9 °F 64.0 °F 97% 30.15 in 6.0 mi South 6.9 mph - N/A   Overcast
9:53 AM 68.0 °F 64.9 °F 90% 30.12 in 10.0 mi SSE 9.2 mph - N/A   Overcast
10:37 AM 69.8 °F 64.4 °F 83% 30.11 in 10.0 mi SSE 8.1 mph 16.1 mph N/A   Overcast
10:53 AM 71.1 °F 64.9 °F 81% 30.09 in 10.0 mi SSE 9.2 mph - N/A   Overcast
11:53 AM 73.0 °F 66.0 °F 79% 30.05 in 10.0 mi South 9.2 mph - N/A   Overcast
12:53 PM 78.1 °F 66.0 °F 66% 30.01 in 10.0 mi SSE 10.4 mph - N/A   Mostly Cloudy
1:00 PM 77.0 °F 66.2 °F 69% 30.02 in 10.0 mi South 9.2 mph - N/A   Mostly Cloudy
1:53 PM 77.0 °F 66.0 °F 69% 29.98 in 10.0 mi SSE 6.9 mph - N/A   Overcast
2:53 PM 77.0 °F 66.0 °F 69% 29.97 in 10.0 mi South 9.2 mph 17.3 mph N/A   Overcast
3:53 PM 75.9 °F 66.0 °F 71% 29.97 in 10.0 mi South 12.7 mph 19.6 mph N/A Thunderstorm Mostly Cloudy
4:10 PM 75.2 °F 66.2 °F 73% 29.98 in 10.0 mi South 20.7 mph 26.5 mph N/A   Mostly Cloudy
4:53 PM 75.0 °F 66.0 °F 73% 29.97 in 10.0 mi South 12.7 mph 18.4 mph N/A   Overcast
5:53 PM 73.9 °F 66.9 °F 79% 29.99 in 10.0 mi SSW 10.4 mph 23.0 mph 0.00 in Rain Light Rain
6:07 PM 73.4 °F 66.2 °F 78% 30.00 in 10.0 mi SSW 11.5 mph - 0.00 in Thunderstorm Mostly Cloudy
6:22 PM 73.4 °F 66.2 °F 78% 30.01 in 10.0 mi SW 8.1 mph - 0.00 in   Mostly Cloudy
6:31 PM 71.6 °F 66.2 °F 83% 30.02 in 10.0 mi NNW 19.6 mph 23.0 mph 0.00 in Thunderstorm Mostly Cloudy
6:42 PM 68.0 °F 62.6 °F 83% 30.02 in 1.8 mi WSW 8.1 mph 23.0 mph 0.08 in Rain , Thunderstorm Heavy Rain
6:44 PM 66.2 °F 62.6 °F 88% 30.01 in 1.5 mi SW 5.8 mph 21.9 mph 0.11 in Rain Heavy Rain
6:49 PM 66.2 °F 62.6 °F 88% 30.02 in 2.0 mi South 6.9 mph 18.4 mph 0.15 in Rain Light Rain
6:53 PM 64.9 °F 63.0 °F 93% 30.01 in 8.0 mi South 6.9 mph - 0.17 in Rain Light Rain
7:53 PM 66.0 °F 64.0 °F 93% 30.01 in 10.0 mi SSW 5.8 mph - 0.01 in   Overcast
8:53 PM 64.9 °F 64.0 °F 97% 30.01 in 10.0 mi Calm Calm - N/A   Mostly Cloudy
9:53 PM 64.9 °F 64.0 °F 97% 30.03 in 10.0 mi SW 4.6 mph - 0.01 in Rain Light Rain
10:39 PM 64.4 °F 64.4 °F 100% 30.05 in 10.0 mi WSW 3.5 mph - 0.01 in   Overcast
10:53 PM 66.0 °F 64.0 °F 93% 30.04 in 10.0 mi WSW 3.5 mph - 0.01 in   Overcast
11:39 PM 64.4 °F 64.4 °F 100% 30.06 in 9.0 mi WSW 5.8 mph - 0.00 in Rain Light Rain
11:53 PM 64.9 °F 64.0 °F 97% 30.04 in 7.0 mi WSW 4.6 mph - 0.01 in Rain Light Rain